Regional Weather Roundup
Issued by NWS Midland/Odessa, TX

Skip options and go directly to product.
Home | Oldest Version | Previous Version | Current Version | All | Text Only | Save Text | Print | Product List | Glossary Off

Skip product version selection by date and time.   

772
ASUS44 KMAF 010801
RWRMAF
MIDLAND AREA WEATHER ROUNDUP
NATIONAL WEATHER SERVICE MIDLAND TX
300 AM CDT FRI JUL 01 2016

...IN SOUTHWEST TEXAS AND SOUTHEAST NEW MEXICO...

CITY           SKY/WX    TMP DP  RH WIND       PRES   REMARKS
ALPINE         CLEAR     70  56  61 NW3       30.19S
ANDREWS        FAIR      72  57  60 SE3       30.07F
ARTESIA        PTCLDY    73  57  56 SE8       30.07S
BIG SPRING     CLEAR     75  59  57 SE8       30.05F
CARLSBAD       CLEAR     75  57  53 S8        30.05S
DRYDEN           N/A     76  58  53 CALM      30.00F
FORT STOCKTON  CLEAR     75  58  55 SE8       30.04F
GUAD PASS      PTCLDY    70  53  54 NE18      30.21S
HOBBS          CLEAR     73  55  53 SE7       30.10F
MARFA          CLEAR    N/A N/A N/A E6        30.19S
MIDLAND AIRPK  CLOUDY    78  60  54 SE5       30.06F
MIDLAND INTL   PTCLDY    75  61  61 SE6       30.05F
ODESSA         CLEAR     77  58  51 SE8       30.06F
PECOS          CLEAR     75  59  58 E8        30.02S
PRESIDIO       FAIR      83  57  41 NE9       30.01S
SEMINOLE       CLEAR     71  56  60 CALM      30.09F
SNYDER           N/A     75  64  68 SE9       30.04F
WINK           CLEAR     74  61  63 SE7       30.02F
$$
...OTHER STATIONS IN TEXAS...

CITY           SKY/WX    TMP DP  RH WIND       PRES   REMARKS
ABILENE        PTCLDY    76  65  68 S10       30.03R
AMARILLO       CLOUDY    69  62  78 E5        30.09S
AUSTIN         PTCLDY    73  72  96 CALM      29.98S
BROWNSVILLE    CLEAR     78  75  90 S6        29.95F
CORPUS CHRISTI PTCLDY    78  75  90 S3        29.94F
DALLAS FTW     PTCLDY    81  65  58 S5        29.97R
DEL RIO        CLEAR     82  68  62 E9        29.95S
EL PASO        PTCLDY    75  56  51 S7        30.05S
HOUSTON INT    PTCLDY    77  75  93 CALM      29.96S
LUBBOCK        CLOUDY    71  64  78 CALM      30.08R
SAN ANGELO       N/A    N/A N/A N/A MISG      30.02S
SAN ANTONIO    PTCLDY    76  72  87 E6        29.99F
WACO           PTCLDY    73  67  81 N3        29.98S
WICHITA FALLS  NOT AVBL
$$
...OTHER LOCATIONS IN NEW MEXICO...

CITY           SKY/WX    TMP DP  RH WIND       PRES   REMARKS
ALAMAGORDO     CLEAR     75  46  35 SW7       30.07S
ALBUQUERQUE    CLOUDY    77  49  37 E13       30.15S
CANNON AFB     CLOUDY    73  58  58 S12       30.12F
CLOVIS         CLOUDY    72  54  53 S12       30.11F
HOLLOMAN AFB   PTCLDY    76  47  35 S10       30.05R
ROSWELL        CLEAR     72  52  49 S7        30.07F
RUIDOSO          N/A     64  45  48 S5        30.31S
SANTA FE       CLOUDY    67  50  54 N5        30.23F
TRUTH OR CONSE CLOUDY    77  50  38 W7        30.10S
TUCUMCARI      CLOUDY    73  56  54 CALM      30.10S
$$

USA.gov is the U.S. government's official web portal to all federal, state and local government web resources and services.